This is the latest recevied weather packets stored in our database for station/object WA6MHA-11. If no packets are shown the sender has not sent any weather packets the latest 10 day(s).
| Time | Temp. | Humidity | Pressure | Rain* | Wind** | Luminosity | Snow |
|---|---|---|---|---|---|---|---|
| 1777939416 | 22.78° C | 30% | 1015.1 hPa | 0 mm | - | - | - |
| 1777938694 | 23.33° C | 30% | 1015.1 hPa | 0 mm | - | - | - |
| 1777938450 | 23.89° C | 30% | 1015.2 hPa | 0 mm | - | - | - |
| 1777938215 | 23.33° C | 30% | 1015.1 hPa | 0 mm | - | - | - |
| 1777937726 | 23.89° C | 30% | 1015.1 hPa | 0 mm | - | - | - |
| 1777937496 | 23.33° C | 30% | 1015.2 hPa | 0 mm | - | - | - |
| 1777937243 | 23.33° C | 31% | 1015.1 hPa | 0 mm | - | - | - |
| 1777936761 | 22.78° C | 30% | 1015.1 hPa | 0 mm | - | - | - |
| 1777936520 | 22.22° C | 30% | 1015.1 hPa | 0 mm | - | - | - |
| 1777936279 | 22.78° C | 30% | 1015.3 hPa | 0 mm | - | - | - |
| 1777936037 | 22.78° C | 29% | 1015.3 hPa | 0 mm | - | - | - |
| 1777935795 | 22.78° C | 29% | 1015.3 hPa | 0 mm | - | - | - |
| 1777935593 | 22.78° C | 29% | 1015.4 hPa | 0 mm | - | - | - |
| 1777935554 | 22.78° C | 29% | 1015.4 hPa | 0 mm | - | - | - |
| 1777935072 | 23.33° C | 29% | 1015.4 hPa | 0 mm | - | - | - |
| 1777934836 | 23.89° C | 29% | 1015.5 hPa | 0 mm | - | - | - |
| 1777934593 | 23.89° C | 29% | 1015.6 hPa | 0 mm | - | - | - |
| 1777934107 | 23.33° C | 29% | 1015.6 hPa | 0 mm | - | - | - |
| 1777933866 | 23.33° C | 29% | 1015.6 hPa | 0 mm | - | - | - |
| 1777933624 | 23.33° C | 30% | 1015.5 hPa | 0 mm | - | - | - |
| 1777933147 | 22.78° C | 30% | 1015.7 hPa | 0 mm | - | - | - |
| 1777932659 | 23.89° C | 30% | 1015.6 hPa | 0 mm | - | - | - |
| 1777932424 | 24.44° C | 29% | 1015.7 hPa | 0 mm | - | - | - |
| 1777932181 | 24.44° C | 30% | 1015.7 hPa | 0 mm | - | - | - |
| 1777931941 | 24.44° C | 30% | 1015.8 hPa | 0 mm | - | - | - |
* Rain since midnight (hover to see other rain measurements)
** Current wind speed in m/s (hover to see current wind gust speed)